Lapse_Rate
2.7 2.1 1.1 0.6 1.5 0.8 0.7 2.8 2.8 3.3 4.2 5.9 5.3 4.2 4.2 4.0 4.5 4.7 5.6 5.0 3.1 3.2 3.5 3.5 3.6 3.3 3.6 4.4 4.8 6.2 8.6 9.3 9.4 9.4 9.4 9.4 9.5 9.2
1.6 0.4 0.4 0.7 0.4 0.2 -0.3 -0.6 1.3 2.0 4.2 2.8 3.9 3.5 4.5 5.2 6.2 4.8 5.5 3.8 3.8 3.7 4.3 4.3 4.3 4.3 5.1 6.2 8.2 9.2 9.3 9.3 9.4 9.4 9.5 9.4 9.4 9.1
-0.6 -0.9 -0.8 -1.7 0.5 0.2 -0.3 -0.2 -0.7 0.2 1.8 1.2 3.7 3.5 3.2 3.4 5.6 5.4 5.7 6.1 5.9 5.4 5.0 4.9 5.0 5.2 6.2 8.0 8.2 8.7 9.2 9.3 9.4 9.4 9.5 9.5 9.0 9.1
0.7 0.8 1.9 1.7 0.3 -0.0 0.2 0.3 0.2 0.2 1.9 2.5 1.5 0.8 0.7 3.2 4.4 4.8 5.5 5.5 5.7 5.3 5.1 4.9 5.2 5.8 6.0 5.9 6.3 6.9 9.1 9.3 9.3 9.4 9.4 9.4 9.4 9.4
-0.5 1.3 1.3 0.7 0.6 0.7 0.2 0.1 0.5 0.9 1.0 1.8 2.6 3.6 4.6 3.3 2.9 4.7 6.7 7.4 6.4 4.8 5.3 5.4 5.4 5.7 5.7 6.0 6.5 7.1 8.0 7.6 8.1 8.6 9.0 9.2 9.3 9.4
0.9 1.6 1.8 1.7 1.0 0.6 0.9 1.0 1.1 1.9 2.8 3.0 5.2 5.6 4.6 4.6 5.0 6.5 8.1 9.6 9.4 6.5 6.5 6.1 5.7 5.3 5.2 5.5 5.8 5.9 5.8 6.0 6.3 6.6 7.0 8.0 8.8 9.2
1.6 1.4 0.9 1.1 1.4 1.1 1.7 1.3 1.7 2.3 3.4 4.9 5.1 5.0 6.4 8.4 8.9 9.3 9.1 9.4 9.4 7.3 7.5 8.8 9.0 7.2 6.9 6.4 6.0 5.6 5.8 6.1 6.3 6.7 7.1 8.2 9.1 9.2
0.4 -0.1 0.1 0.8 1.4 2.4 3.0 2.3 3.5 5.0 4.7 6.0 6.8 8.2 8.8 9.1 9.4 9.2 9.1 8.8 8.4 7.1 9.3 9.3 9.1 8.8 7.5 6.5 6.1 6.1 6.1 6.3 6.6 6.8 7.6 9.0 9.1 9.0
0.6 0.7 0.9 1.3 1.2 1.4 3.8 3.8 4.5 5.6 6.1 8.7 8.7 9.0 9.0 9.3 8.9 8.0 8.8 8.6 8.3 8.4 9.7 9.1 8.0 8.5 7.9 7.2 6.3 6.0 6.0 6.0 6.1 6.5 7.1 8.2 9.2 9.2
1.1 1.9 2.3 2.5 3.1 2.9 4.6 4.9 5.6 5.7 7.3 8.3 9.1 9.5 9.5 9.7 9.5 8.7 8.6 8.7 9.4 9.6 9.8 8.8 8.4 9.4 9.7 8.0 6.5 6.0 6.0 6.2 6.4 6.7 7.1 8.3 9.1 9.2
3.3 3.4 3.8 4.3 4.7 5.8 6.8 6.0 6.8 8.5 9.1 7.6 7.4 7.4 7.6 8.0 8.3 9.3 8.3 8.7 8.5 8.9 9.5 9.2 8.3 9.3 9.5 7.3 6.5 6.9 6.1 6.0 6.1 6.5 7.0 7.3 7.7 8.9
4.4 4.8 4.6 5.7 6.3 7.5 8.4 8.9 8.6 8.4 8.9 8.1 9.7 9.0 7.6 7.4 7.0 7.4 8.0 7.3 7.6 7.5 9.3 7.7 8.0 8.6 8.0 6.9 8.0 7.8 6.7 7.0 6.8 6.5 6.2 6.2 6.6 8.5
5.7 5.8 6.9 5.9 6.2 7.1 7.7 8.4 8.0 8.3 8.6 7.4 7.7 8.1 8.1 7.8 7.9 7.7 7.2 6.5 5.5 5.4 6.4 8.4 6.2 6.2 7.8 8.0 6.7 7.1 6.8 6.6 7.8 7.4 7.2 6.7 6.7 8.0
6.2 6.3 6.2 5.7 6.0 6.2 7.0 7.7 7.7 7.6 8.2 7.9 7.7 7.9 8.3 7.2 6.9 6.4 5.8 5.6 5.5 4.4 4.2 5.3 5.1 5.2 5.6 5.6 6.2 6.3 7.1 6.4 6.1 5.5 6.2 6.1 6.5 7.0
6.4 6.6 6.2 6.4 6.7 6.7 6.4 6.4 6.3 7.1 7.2 7.0 7.3 7.1 6.9 6.1 5.1 4.9 4.7 4.7 4.0 3.1 3.1 3.4 3.9 3.9 4.5 5.1 5.8 5.2 6.9 5.4 5.0 5.1 5.7 6.3 7.1 7.2
6.6 6.9 6.2 5.8 5.4 5.8 5.8 6.2 6.4 6.8 6.8 7.0 6.9 6.4 6.1 5.5 5.4 5.9 5.4 5.6 5.1 4.6 6.0 4.5 4.2 4.6 4.4 4.8 5.8 5.1 5.9 7.4 5.8 5.9 6.7 6.3 6.8 6.8
6.7 7.1 7.2 7.2 7.2 7.1 6.7 6.5 6.5 6.3 6.1 6.3 5.7 5.4 5.4 5.6 5.5 5.9 5.5 5.2 4.9 5.3 5.5 6.1 6.4 6.2 5.9 5.6 5.4 5.1 5.5 6.4 7.2 6.6 7.4 7.3 7.3 7.8
7.2 7.2 7.2 6.7 6.3 6.2 6.1 6.2 6.2 5.9 5.9 5.2 4.9 4.9 4.7 4.7 4.9 5.3 5.7 6.3 6.5 6.1 5.7 5.5 5.8 6.4 6.9 7.4 7.6 6.1 7.2 7.3 7.2 8.1 8.0 7.4 7.7 8.0
6.7 6.9 6.4 6.2 6.0 5.9 5.9 5.4 5.1 5.4 4.2 4.0 4.3 4.2 4.2 4.2 4.7 4.9 5.6 6.0 6.0 6.5 6.2 6.3 7.1 7.6 7.5 7.7 8.7 9.3 8.1 7.4 7.4 7.3 7.3 7.9 7.7 6.9
6.4 6.5 6.4 6.2 6.0 5.8 5.5 5.1 4.8 4.7 4.9 4.7 4.4 4.3 4.1 4.1 4.4 4.8 5.6 5.7 5.8 5.9 5.8 6.2 6.1 7.2 7.5 7.6 7.7 7.7 7.8 7.2 7.2 7.3 7.5 7.8 7.3 7.0
6.3 6.2 6.1 5.8 5.6 5.4 5.0 4.5 3.9 3.8 4.1 4.1 4.3 4.2 4.4 4.7 4.7 5.1 5.4 5.8 6.0 5.9 5.5 5.6 5.9 7.3 7.1 6.8 7.3 8.1 8.7 8.3 8.2 7.4 7.0 7.4 7.5 6.3
6.1 6.0 5.9 5.6 5.2 4.8 4.5 4.2 3.9 4.0 4.3 4.5 4.5 4.8 5.0 4.9 4.6 4.8 5.1 5.3 5.1 5.3 5.2 5.3 5.7 6.7 7.3 6.8 7.3 7.7 8.0 8.3 8.5 8.6 8.4 7.8 6.7 7.2
5.8 5.5 5.0 4.7 4.3 4.0 3.8 3.7 3.4 3.5 3.8 4.1 4.2 4.4 4.8 4.7 4.8 4.9 5.0 5.1 5.1 5.1 5.6 6.0 6.9 7.3 7.3 7.6 7.6 7.5 7.7 7.8 8.2 7.9 7.7 8.4 7.6 6.5
Wind_Speed
12 10 7 4 4 3 3 2 3 4 5 4 3 5 6 6 8 8 10 11 14 17 18 19 20 22 23 23 23 25 25 25 25 26 26 27 28 26
7 8 6 4 4 4 4 5 2 3 2 2 2 1 3 3 8 10 13 11 17 17 20 19 21 22 23 23 24 25 25 25 26 26 27 28 27 27
7 8 7 11 5 4 5 3 4 3 2 2 1 1 2 3 11 13 13 14 16 17 19 21 23 22 22 23 24 25 26 25 25 27 28 27 27 27
9 11 11 7 8 7 5 6 4 4 2 2 1 1 4 6 10 10 13 14 16 18 20 22 23 22 23 23 22 23 23 24 26 27 27 28 29 30
10 10 9 9 8 6 5 5 3 3 1 2 1 3 2 5 7 10 10 13 16 18 20 21 21 21 22 21 22 24 25 26 27 28 29 30 31 31
10 10 9 8 8 7 5 4 4 3 2 3 4 5 5 5 7 8 8 8 10 16 17 20 19 20 23 24 25 25 26 25 25 26 27 28 28 29
10 10 8 8 11 6 3 4 4 4 4 5 5 4 6 7 8 7 8 9 10 10 10 9 12 15 18 21 22 23 23 22 24 26 27 28 29 30
9 8 6 8 6 4 8 9 7 5 5 5 5 8 9 7 7 7 8 9 9 9 7 10 15 12 15 19 22 24 26 27 28 28 29 29 30 31
7 6 6 4 5 2 1 4 7 11 11 8 10 9 9 8 7 8 10 8 9 11 11 12 11 12 16 19 24 26 27 29 29 28 27 28 29 30
6 5 5 5 4 4 6 6 6 5 7 6 9 9 9 9 9 7 10 11 11 11 11 11 11 11 11 18 25 27 28 28 27 27 27 28 29 29
5 4 4 3 3 5 6 4 5 6 6 10 13 13 14 15 14 8 8 8 9 11 10 9 10 10 11 12 18 18 21 24 26 27 29 29 30 30
4 3 0 2 2 4 5 4 5 7 8 8 8 9 11 11 11 10 7 8 8 7 1 3 8 8 5 7 7 14 18 21 24 26 28 29 29 16
1 0 2 1 3 4 4 3 6 9 11 7 8 7 6 6 5 8 9 7 7 9 12 7 6 9 7 8 10 10 11 12 13 17 23 26 25 20
1 2 3 4 3 5 6 7 10 9 6 6 6 6 6 6 6 7 11 13 15 13 19 13 5 8 9 11 11 11 11 11 11 11 9 18 23 24
2 3 2 3 5 5 6 8 8 5 5 6 6 6 6 6 8 8 11 13 16 20 21 20 11 12 9 10 12 13 13 11 12 11 10 9 10 9
2 1 3 4 4 5 5 4 4 4 5 6 6 7 7 7 7 6 7 8 9 10 10 16 16 11 10 10 11 14 12 9 10 11 10 11 11 10
2 3 4 3 3 3 3 4 4 4 5 5 6 7 7 7 7 7 7 8 8 10 10 8 10 12 10 13 13 13 13 12 11 12 12 12 12 11
4 4 4 3 4 4 4 4 4 5 5 5 6 7 8 8 8 8 8 8 9 10 10 10 11 10 10 11 20 13 12 12 11 11 12 12 13 10
4 4 4 4 4 4 4 4 5 5 6 6 7 7 8 8 9 8 9 9 9 10 10 9 10 9 12 14 9 16 12 13 12 13 11 11 13 13
4 4 4 4 4 5 5 5 5 6 6 6 7 8 8 8 8 9 9 10 10 11 11 10 10 10 10 13 16 13 18 14 12 12 13 12 14 24
4 5 5 5 5 5 5 5 6 6 7 8 8 8 8 7 9 9 10 16 16 10 12 12 12 23 12 12 11 13 10 16 17 14 13 12 13 14
5 5 5 6 6 6 6 6 7 7 7 7 8 8 8 8 9 10 10 10 11 10 13 13 13 11 11 11 14 17 14 12 13 20 23 22 12 8
5 6 6 6 6 7 7 7 8 8 8 8 8 9 8 9 9 9 11 11 12 12 13 14 13 11 12 12 16 13 20 17 12 13 11 18 24 29
Wind_Direction
208 197 172 157 160 149 116 124 144 165 201 168 191 191 199 182 224 265 288 287 287 292 293 297 298 295 291 289 286 285 284 284 283 282 281 283 282 283
198 168 125 121 123 120 107 107 46 114 155 94 197 130 184 224 282 281 283 289 279 283 288 291 292 288 285 284 281 281 282 282 284 284 281 282 281 279
160 144 130 136 134 99 103 85 99 96 116 122 37 58 18 290 277 279 284 283 285 283 286 291 289 285 282 282 282 283 282 283 281 280 280 282 282 282
159 151 141 123 101 98 81 78 78 67 85 173 134 277 229 248 266 279 286 286 286 287 292 289 287 285 282 279 281 281 281 280 280 280 280 283 283 282
123 121 116 107 108 108 113 117 121 107 144 191 211 218 270 289 285 283 284 285 283 286 287 288 287 285 279 282 282 281 281 282 281 281 280 279 278 277
103 107 117 119 127 129 135 137 132 150 207 232 245 257 258 261 262 273 285 289 294 296 293 287 287 283 285 286 283 281 280 280 279 277 276 275 275 274
98 102 105 118 125 130 144 141 142 176 218 240 242 244 250 260 268 293 288 294 300 297 291 286 290 292 289 285 279 277 277 278 279 278 275 273 273 271
111 101 100 100 109 167 190 188 187 205 228 255 258 259 265 275 285 282 295 298 307 292 291 295 294 290 290 285 282 282 281 281 281 281 278 276 275 273
99 108 108 117 111 106 300 243 233 230 238 257 265 271 281 287 305 293 286 286 282 280 289 292 292 290 288 282 281 282 283 284 284 282 279 277 276 274
90 109 128 144 158 174 213 214 236 239 246 256 266 275 282 281 273 258 267 273 276 278 278 284 286 287 291 284 284 285 284 284 282 280 280 280 278 278
123 138 147 154 162 236 243 248 264 261 250 263 280 282 277 277 281 289 278 278 282 286 289 286 280 290 292 287 283 277 278 280 280 280 283 284 282 280
133 146 321 314 251 253 273 283 280 284 295 286 275 272 275 275 269 257 263 263 276 290 268 277 293 312 299 287 281 295 287 283 283 283 283 283 282 280
155 164 223 337 323 321 334 272 292 306 294 290 289 286 277 269 264 254 254 251 254 255 266 289 285 292 274 283 285 293 292 286 288 287 286 284 281 275
333 342 347 322 336 340 319 304 291 289 282 280 282 281 283 285 278 267 263 260 255 255 272 279 269 270 276 283 284 290 293 294 293 285 280 281 279 274
341 345 13 346 319 295 291 298 291 270 272 273 277 283 287 287 288 276 267 266 259 254 259 257 254 262 261 264 276 285 289 292 291 281 273 268 269 270
263 261 344 323 301 296 287 265 263 271 277 281 286 294 297 289 286 288 289 290 292 289 261 244 245 252 267 262 270 278 280 275 282 281 279 278 275 271
293 279 278 273 276 269 273 274 280 281 279 284 293 296 297 294 288 292 286 286 280 293 299 294 275 263 258 262 272 272 280 274 268 274 275 272 270 266
272 287 293 302 307 313 307 304 299 288 290 297 291 289 288 287 285 286 280 276 284 292 296 300 301 294 282 262 241 268 271 274 279 279 278 279 280 275
291 296 292 292 293 293 291 293 296 298 306 282 287 287 287 284 285 283 284 283 283 289 294 292 287 288 293 293 289 253 273 283 286 287 280 275 278 285
281 278 278 277 278 278 283 287 297 299 294 293 288 286 285 282 281 281 283 286 288 291 291 292 283 278 279 289 296 295 258 271 275 278 282 283 280 280
290 283 280 280 281 281 283 286 287 287 290 290 287 284 283 282 279 279 280 286 287 289 286 285 281 285 286 285 279 280 284 245 258 273 282 283 287 294
293 289 290 287 285 283 285 286 286 285 286 284 283 283 283 281 281 283 282 284 285 283 283 283 287 283 277 267 280 288 293 292 275 270 265 262 272 270
289 285 284 282 280 278 277 278 278 280 280 280 281 282 281 283 281 281 282 280 283 281 281 286 288 280 278 282 283 286 288 292 298 297 279 259 255 257